FW0880 Weather Reports


time (UTC)temp
C
wind
direction
speed
KPH
gust
KPH
rain 1hr
cm
rain 24hr
cm
rain mn
cm
humidity
%
barometer
mb
20260505073008 26 92 0.0 0.0 0.00 0.00 0.00 80 1009.3
20260505072530 26 92 0.0 0.0 0.00 0.00 0.00 80 1009.4
20260505072100 26 5 0.0 1.6 0.00 0.00 0.00 81 1009.4
20260505071619 26 340 0.0 3.2 0.00 0.00 0.00 81 1009.5
20260505071005 26 340 1.6 3.2 0.00 0.00 0.00 81 1009.6
20260505070529 26 331 0.0 3.2 0.00 0.00 0.00 81 1009.6
20260505070057 26 331 0.0 4.8 0.00 0.00 0.00 81 1009.7
20260505065618 26 331 0.0 4.8 0.00 0.00 0.00 82 1009.7
20260505065015 26 330 0.0 4.8 0.00 0.00 0.00 82 1009.7
20260505064531 26 330 1.6 4.8 0.00 0.00 0.00 82 1009.8
20260505064059 26 296 0.0 4.8 0.00 0.00 0.00 82 1009.8
20260505063617 26 294 1.6 4.8 0.00 0.00 0.00 82 1009.8
20260505063004 26 292 3.2 4.8 0.00 0.00 0.00 82 1010.0
20260505062524 26 244 0.0 6.4 0.00 0.00 0.00 82 1010.0
20260505062050 26 244 1.6 6.4 0.00 0.00 0.00 82 1010.0
20260505061612 26 242 1.6 6.4 0.00 0.00 0.00 82 1010.0
20260505061006 26 244 1.6 8.0 0.00 0.00 0.00 82 1010.0
20260505060525 26 244 3.2 8.0 0.00 0.00 0.00 82 1010.0
20260505060046 26 242 1.6 6.4 0.00 0.00 0.00 82 1010.0
20260505055603 26 234 1.6 4.8 0.00 0.00 0.00 82 1010.1
20260505055001 26 235 1.6 6.4 0.00 0.00 0.00 82 1010.1
20260505054532 26 234 0.0 6.4 0.00 0.00 0.00 82 1010.2
20260505054100 26 250 3.2 6.4 0.00 0.00 0.00 81 1010.3
20260505053619 26 242 3.2 6.4 0.00 0.00 0.00 81 1010.3
20260505053133 26 205 0.0 4.8 0.00 0.00 0.00 81 1010.3
20260505052517 26 203 1.6 4.8 0.00 0.00 0.00 81 1010.2
20260505052047 26 202 1.6 6.4 0.00 0.00 0.00 81 1010.3
20260505051609 26 236 3.2 6.4 0.00 0.00 0.00 81 1010.2
20260505051009 26 213 3.2 8.0 0.00 0.00 0.00 81 1010.2
20260505050531 26 207 3.2 8.0 0.00 0.00 0.00 81 1010.2
20260505041627 27 202 3.2 6.4 0.00 0.00 0.00 80 1009.8
20260505041011 27 218 3.2 6.4 0.00 0.00 0.00 80 1009.7
20260505040531 27 249 3.2 6.4 0.00 0.00 0.00 80 1009.7
20260505040047 27 221 1.6 6.4 0.00 0.00 0.00 80 1009.5
20260505035608 27 233 1.6 4.8 0.00 0.00 0.00 80 1009.5
20260505035019 27 255 1.6 6.4 0.00 0.00 0.00 80 1009.5
20260505034539 27 254 1.6 6.4 0.00 0.00 0.00 80 1009.4
20260505034108 27 232 3.2 9.7 0.00 0.00 0.00 80 1009.4
20260505033621 27 213 4.8 9.7 0.00 0.00 0.00 80 1009.4
20260505033021 27 225 1.6 6.4 0.00 0.00 0.00 80 1009.3
20260505032537 27 234 3.2 8.0 0.00 0.00 0.00 80 1009.3
20260505032054 27 217 1.6 6.4 0.00 0.00 0.00 80 1009.3
20260505031609 27 274 1.6 6.4 0.00 0.00 0.00 80 1009.2
20260505031008 27 260 1.6 8.0 0.00 0.00 0.00 80 1009.2
20260505030521 27 223 3.2 8.0 0.00 0.00 0.00 80 1009.1
20260505030055 27 226 1.6 8.0 0.00 0.00 0.00 80 1009.1
20260505025617 27 250 1.6 9.7 0.00 0.00 0.00 80 1009.0
20260505025010 27 194 4.8 8.0 0.00 0.00 0.00 80 1009.0
20260505024533 27 201 1.6 8.0 0.00 0.00 0.00 80 1009.0
20260505024049 27 246 1.6 12.9 0.00 0.00 0.00 80 1008.9
20260505023606 27 215 4.8 12.9 0.00 0.00 0.00 80 1008.8
20260505023001 27 240 3.2 12.9 0.00 0.00 0.00 80 1008.8
20260505022522 27 252 1.6 12.9 0.00 0.00 0.00 80 1008.8
20260505022102 27 261 4.8 12.9 0.00 0.00 0.00 79 1008.7
20260505021616 27 281 3.2 11.3 0.00 0.00 0.00 79 1008.7
20260505021024 27 242 3.2 11.3 0.00 0.00 0.00 79 1008.6
20260505020537 27 275 3.2 12.9 0.00 0.00 0.00 79 1008.6
20260505020041 27 206 1.6 8.0 0.00 0.00 0.00 79 1008.5
20260505015535 27 227 4.8 12.9 0.00 0.00 0.00 79 1008.4
20260505015057 27 260 4.8 12.9 0.00 0.00 0.00 79 1008.4
20260505014613 27 277 4.8 11.3 0.00 0.00 0.00 79 1008.3
20260505014017 27 234 3.2 8.0 0.00 0.00 0.00 79 1008.3
20260505013535 27 217 3.2 8.0 0.00 0.00 0.00 79 1008.3
20260505013108 27 225 3.2 9.7 0.00 0.00 0.00 78 1008.3
20260505012632 27 229 3.2 12.9 0.00 0.00 0.00 78 1008.4
20260505012021 27 325 6.4 12.9 0.00 0.00 0.00 78 1008.4
20260505011541 27 240 4.8 11.3 0.00 0.00 0.00 78 1008.4
20260505011105 27 218 3.2 14.5 0.00 0.00 0.00 78 1008.4
20260505010618 28 350 6.4 14.5 0.00 0.00 0.00 78 1008.5
20260505010017 28 261 3.2 17.7 0.00 0.00 0.00 78 1008.4
20260505005535 28 263 8.0 17.7 0.00 0.00 0.00 78 1008.5
20260505005105 28 218 4.8 16.1 0.00 0.00 0.00 78 1008.5
20260505004625 28 213 3.2 16.1 0.00 0.00 0.00 78 1008.5
20260505004015 28 266 6.4 12.9 0.00 0.00 0.00 78 1008.5
20260505003529 28 232 6.4 12.9 0.00 0.00 0.00 78 1008.5
20260505003104 28 262 4.8 12.9 0.00 0.00 0.00 77 1008.5
20260505002621 28 193 6.4 16.1 0.00 0.00 0.00 77 1008.6
20260505002009 28 236 3.2 16.1 0.00 0.00 0.00 76 1008.6
20260505001531 28 234 4.8 14.5 0.00 0.00 0.00 76 1008.6
20260505001101 28 243 4.8 14.5 0.00 0.00 0.00 77 1008.5
20260505000618 28 225 6.4 17.7 0.00 0.00 0.00 76 1008.6
20260505000146 28 257 8.0 17.7 0.00 0.00 0.00 76 1008.5
20260504235525 28 250 4.8 17.7 0.00 0.00 0.00 75 1008.5
20260504235102 28 242 8.0 17.7 0.00 0.00 0.00 75 1008.5
20260504234638 29 244 8.0 14.5 0.00 0.00 0.00 75 1008.5
20260504234014 29 150 8.0 16.1 0.00 0.00 0.00 76 1008.6
20260504233538 29 282 6.4 16.1 0.00 0.00 0.00 76 1008.5
20260504233105 29 220 4.8 16.1 0.00 0.00 0.00 76 1008.4
20260504232625 29 168 8.0 16.1 0.00 0.00 0.00 75 1008.6
20260504232011 29 200 8.0 17.7 0.00 0.00 0.00 76 1008.6
20260504231541 29 218 8.0 17.7 0.00 0.00 0.00 75 1008.6
20260504231109 29 252 8.0 20.9 0.00 0.00 0.00 75 1008.7
20260504230625 29 190 11.3 17.7 0.00 0.00 0.00 74 1008.7
20260504230039 30 238 11.3 17.7 0.00 0.00 0.00 73 1008.7
20260504225607 30 254 6.4 17.7 0.00 0.00 0.00 74 1008.8
20260504225134 30 169 4.8 17.7 0.00 0.00 0.00 74 1008.8
20260504224520 30 180 9.7 17.7 0.00 0.00 0.00 74 1008.9
20260504224053 30 187 9.7 17.7 0.00 0.00 0.00 74 1008.9
20260504223610 30 194 11.3 22.5 0.00 0.00 0.00 73 1008.8
20260504223017 30 178 8.0 22.5 0.00 0.00 0.00 74 1008.9
20260504222529 30 211 6.4 17.7 0.00 0.00 0.00 75 1008.9
20260504222050 29 220 8.0 20.9 0.00 0.00 0.00 75 1008.9
20260504221608 30 244 11.3 20.9 0.00 0.00 0.00 75 1008.9
20260504221018 30 200 9.7 16.1 0.00 0.00 0.00 74 1009.0
20260504220541 30 217 6.4 20.9 0.00 0.00 0.00 74 1009.0
20260504220003 30 194 9.7 22.5 0.00 0.00 0.00 74 1009.0
20260504215519 30 177 6.4 16.1 0.00 0.00 0.00 74 1009.0
20260504215056 30 251 8.0 16.1 0.00 0.00 0.00 74 1009.0
20260504214614 30 199 4.8 16.1 0.00 0.00 0.00 75 1009.1
20260504214004 30 179 6.4 24.1 0.00 0.00 0.00 76 1009.1
20260504213523 29 181 9.7 24.1 0.00 0.00 0.00 76 1009.2
20260504213109 30 167 11.3 27.4 0.00 0.00 0.00 75 1009.2
20260504212632 30 220 14.5 22.5 0.00 0.00 0.00 74 1009.1
20260504212013 30 208 8.0 19.3 0.00 0.00 0.00 74 1009.2
20260504211531 30 258 8.0 17.7 0.00 0.00 0.00 74 1009.2
20260504211106 30 238 4.8 19.3 0.00 0.00 0.00 73 1009.3
20260504210628 30 209 8.0 19.3 0.00 0.00 0.00 72 1009.3
20260504210049 31 265 9.7 17.7 0.00 0.00 0.00 72 1009.3
20260504205539 31 211 11.3 20.9 0.00 0.00 0.00 72 1009.3
20260504205106 31 213 11.3 20.9 0.00 0.00 0.00 73 1009.4
20260504204639 30 265 9.7 17.7 0.00 0.00 0.00 73 1009.4
20260504204010 30 260 8.0 19.3 0.00 0.00 0.00 73 1009.5
20260504203534 30 265 8.0 19.3 0.00 0.00 0.00 73 1009.7
20260504203043 30 270 11.3 27.4 0.00 0.00 0.00 73 1009.7
20260504202603 30 238 8.0 27.4 0.00 0.00 0.00 72 1009.8
20260504202003 31 261 9.7 22.5 0.00 0.00 0.00 72 1009.8
20260504201518 31 228 6.4 19.3 0.00 0.00 0.00 72 1009.8
20260504201100 31 269 8.0 17.7 0.00 0.00 0.00 72 1009.9
20260504200624 31 219 9.7 17.7 0.00 0.00 0.00 72 1009.8
20260504200043 31 213 6.4 17.7 0.00 0.00 0.00 73 1009.9
20260504195532 31 246 9.7 22.5 0.00 0.00 0.00 72 1009.9
20260504195103 31 211 8.0 22.5 0.00 0.00 0.00 73 1010.0
20260504194619 31 242 8.0 19.3 0.00 0.00 0.00 72 1010.1
20260504194004 31 255 6.4 17.7 0.00 0.00 0.00 73 1010.0
20260504193525 31 177 8.0 17.7 0.00 0.00 0.00 72 1010.0
20260504193100 31 193 9.7 19.3 0.00 0.00 0.00 73 1010.1
20260504192614 31 188 11.3 19.3 0.00 0.00 0.00 72 1010.1
20260504192013 31 251 8.0 20.9 0.00 0.00 0.00 71 1010.1
20260504191530 31 221 8.0 19.3 0.00 0.00 0.00 71 1010.1
20260504191054 31 236 6.4 17.7 0.00 0.00 0.00 71 1010.1
20260504190617 31 219 6.4 19.3 0.00 0.00 0.00 70 1010.1
20260504190014 31 225 6.4 19.3 0.00 0.00 0.00 71 1010.0
20260504185528 31 202 6.4 17.7 0.00 0.00 0.00 70 1010.0
20260504185100 31 229 8.0 16.1 0.00 0.00 0.00 70 1010.0
20260504184615 31 182 9.7 14.5 0.00 0.00 0.00 69 1010.0
20260504184008 31 255 8.0 14.5 0.00 0.00 0.00 69 1010.0
20260504183529 31 217 6.4 14.5 0.00 0.00 0.00 69 1010.1
20260504183114 31 236 6.4 14.5 0.00 0.00 0.00 69 1010.1
20260504182634 31 203 6.4 14.5 0.00 0.00 0.00 68 1010.2
20260504182050 31 216 8.0 17.7 0.00 0.00 0.00 68 1010.2
20260504181604 31 205 6.4 12.9 0.00 0.00 0.00 68 1010.2
20260504181017 31 224 6.4 16.1 0.00 0.00 0.00 68 1010.3
20260504180529 31 211 6.4 16.1 0.00 0.00 0.00 68 1010.3
20260504180042 30 233 6.4 14.5 0.00 0.00 0.00 68 1010.3
20260504175620 30 236 4.8 14.5 0.00 0.00 0.00 69 1010.4
20260504175015 30 224 8.0 16.1 0.00 0.00 0.00 69 1010.3
20260504174532 30 202 9.7 16.1 0.00 0.00 0.00 69 1010.4
20260504174057 30 237 8.0 16.1 0.00 0.00 0.00 68 1010.5
20260504173615 30 246 9.7 16.1 0.00 0.00 0.00 68 1010.5
20260504173005 30 244 6.4 14.5 0.00 0.00 0.00 69 1010.5
20260504172518 30 188 8.0 14.5 0.00 0.00 0.00 68 1010.6
20260504172056 30 231 9.7 14.5 0.00 0.00 0.00 67 1010.6
20260504171617 30 201 6.4 12.9 0.00 0.00 0.00 67 1010.6
20260504171137 30 258 4.8 12.9 0.00 0.00 0.00 67 1010.7
20260504170519 30 190 8.0 12.9 0.00 0.00 0.00 67 1010.8
20260504160125 29 246 3.2 12.9 0.00 0.00 0.00 69 1010.5
20260504151058 28 223 4.8 8.0 0.00 0.00 0.00 69 1010.3
20260504150616 27 255 1.6 6.4 0.00 0.00 0.00 69 1010.3
20260504141058 26 53 0.0 4.8 0.00 0.00 0.00 68 1010.3
20260504140621 26 53 0.0 3.2 0.00 0.00 0.00 68 1010.3
20260504130528 25 157 0.0 3.2 0.00 0.00 0.00 80 1010.0
20260504110621 25 157 0.0 1.6 0.00 0.00 0.00 80 1009.7
20260504081607 27 188 0.0 3.2 0.00 0.00 0.00 83 1010.6
20260504081012 27 188 1.6 4.8 0.00 0.00 0.00 83 1010.7
20260504080535 27 188 1.6 4.8 0.00 0.00 0.00 82 1010.7